TimeCDT,TemperatureF,Dew PointF,Humidity,Sea Level PressureIn,VisibilityMPH,Wind Direction,Wind SpeedMPH,Gust SpeedMPH,PrecipitationIn,Events,Conditions,WindDirDegrees,DateUTC
12:54 AM,48.0,44.1,86,30.06,10.0,Calm,Calm,-,N/A,,Clear,0,2013-06-09 05:54:00
1:54 AM,46.0,43.0,89,30.06,10.0,Calm,Calm,-,N/A,,Clear,0,2013-06-09 06:54:00
2:54 AM,44.1,41.0,89,30.07,10.0,Calm,Calm,-,N/A,,Clear,0,2013-06-09 07:54:00
3:54 AM,42.1,39.0,89,30.07,10.0,Calm,Calm,-,N/A,,Clear,0,2013-06-09 08:54:00
4:54 AM,42.1,39.9,92,30.07,10.0,Calm,Calm,-,N/A,,Clear,0,2013-06-09 09:54:00
5:54 AM,46.0,44.1,93,30.09,10.0,Calm,Calm,-,N/A,,Clear,0,2013-06-09 10:54:00
6:54 AM,50.0,46.0,86,30.08,10.0,Calm,Calm,-,N/A,,Clear,0,2013-06-09 11:54:00
7:54 AM,57.0,46.9,69,30.08,10.0,SE,3.5,-,N/A,,Clear,130,2013-06-09 12:54:00
8:54 AM,59.0,48.0,67,30.07,10.0,SE,5.8,-,N/A,,Clear,140,2013-06-09 13:54:00
9:54 AM,61.0,48.9,64,30.06,10.0,East,6.9,-,N/A,,Clear,100,2013-06-09 14:54:00
10:54 AM,66.0,51.1,59,30.06,10.0,Variable,5.8,-,N/A,,Clear,0,2013-06-09 15:54:00
11:54 AM,64.9,52.0,63,30.06,10.0,ESE,8.1,-,0.00,Rain,Light Rain,110,2013-06-09 16:54:00
12:54 PM,66.0,53.1,63,30.04,10.0,SE,5.8,16.1,0.00,Rain,Light Rain,130,2013-06-09 17:54:00
1:54 PM,66.9,51.1,57,30.03,10.0,SE,15.0,19.6,0.00,Rain,Light Rain,130,2013-06-09 18:54:00
2:54 PM,64.9,50.0,58,30.01,10.0,East,6.9,-,0.00,,Overcast,100,2013-06-09 19:54:00
3:54 PM,64.9,51.1,61,30.01,10.0,ESE,10.4,17.3,N/A,,Overcast,110,2013-06-09 20:54:00
4:54 PM,68.0,53.1,59,29.99,10.0,ESE,9.2,-,N/A,,Scattered Clouds,120,2013-06-09 21:54:00
5:54 PM,68.0,53.1,59,29.97,10.0,East,10.4,17.3,N/A,,Scattered Clouds,90,2013-06-09 22:54:00
6:54 PM,68.0,53.1,59,29.96,10.0,ESE,8.1,-,N/A,,Clear,120,2013-06-09 23:54:00
7:54 PM,66.9,53.1,61,29.95,10.0,ESE,3.5,-,N/A,,Partly Cloudy,110,2013-06-10 00:54:00
8:54 PM,66.0,53.1,63,29.95,10.0,ESE,5.8,-,N/A,,Mostly Cloudy,110,2013-06-10 01:54:00
9:54 PM,64.0,53.1,67,29.95,10.0,SE,3.5,-,N/A,,Mostly Cloudy,130,2013-06-10 02:54:00
10:54 PM,64.0,52.0,65,29.94,10.0,East,4.6,-,N/A,,Mostly Cloudy,100,2013-06-10 03:54:00